Date String (YYYY-MM-DD hh:mm:ss) UTC,Instrument flags,Ambient pressure (hPa),Sample flow (lpm),Bypass flow (lpm),Sample temperature (°C),Ambient temperature (°C),ASC tube jacket temperature (°C),LED temperature (°C),Box temperature (°C),Sample RH (%),Span deviation,Mass concentration (μg/m³),Mass concentration (μg/m³),Mass concentration (μg/m³)
DateTimeUTC,F1_M11,P_M11,Q1_M11,Q2_M11,T1_M11,T2_M11,T3_M11,T4_M11,T5_M11,U1_M11,ZSPAN_M11,X0_M11,X2_M11,X1_M11
2022-06-13 11:00:00,,0815.7,5.00,0.00,29.5,28.2,00.0,38.5,31.4,07.6,0000.0,0024.09,0007.22,0004.40
2022-06-13 11:01:00,,0815.7,5.00,0.00,29.6,28.3,00.0,38.5,31.4,07.8,0000.0,0023.91,0007.24,0004.37
2022-06-13 11:02:00,,0815.7,5.00,0.00,29.6,28.3,00.0,38.5,31.4,07.6,0000.0,0023.33,0007.15,0004.35
2022-06-13 11:03:00,,0815.7,5.00,0.00,29.6,28.4,00.0,38.5,31.4,07.5,0000.0,0022.57,0007.04,0004.34
2022-06-13 11:04:00,,0815.7,5.00,0.00,29.6,28.5,00.0,38.5,31.5,07.6,0000.0,0022.58,0007.01,0004.32
2022-06-13 11:05:00,,0815.7,5.00,0.00,29.6,28.5,00.0,38.5,31.5,07.5,0000.0,0022.49,0006.94,0004.29
2022-06-13 11:06:00,,0815.7,4.99,0.00,29.6,28.6,00.0,38.5,31.5,07.4,0000.0,0022.03,0006.81,0004.25
2022-06-13 11:07:00,,0815.6,5.00,0.00,29.6,28.6,00.0,38.5,31.5,07.1,0000.0,0021.57,0006.72,0004.22
2022-06-13 11:08:00,,0815.7,5.00,0.00,29.7,28.6,00.0,38.5,31.5,07.0,0000.0,0020.97,0006.65,0004.19
2022-06-13 11:09:00,,0815.7,5.00,0.00,29.7,28.7,00.0,38.5,31.6,07.2,0000.0,0021.02,0006.54,0004.16
2022-06-13 11:10:00,,0815.8,5.01,0.00,29.7,28.7,00.0,38.5,31.6,07.4,0000.0,0020.54,0006.55,0004.17
2022-06-13 11:11:00,,0815.7,5.01,0.00,29.7,28.7,00.0,38.5,31.6,07.5,0000.0,0020.74,0006.59,0004.17
2022-06-13 11:12:00,,0815.7,4.99,0.00,29.7,28.8,00.0,38.6,31.6,07.5,0000.0,0019.90,0006.51,0004.17
2022-06-13 11:13:00,,0815.7,5.00,0.00,29.7,28.8,00.0,38.6,31.7,07.5,0000.0,0019.74,0006.41,0004.15
2022-06-13 11:14:00,,0815.7,5.01,0.00,29.7,28.8,00.0,38.6,31.6,07.4,0000.0,0020.11,0006.49,0004.15
2022-06-13 11:15:00,,0815.8,5.01,0.00,29.8,28.8,00.0,38.6,31.7,07.5,0000.0,0021.53,0006.51,0004.13
2022-06-13 11:16:00,,0815.8,5.00,0.00,29.8,28.9,00.0,38.6,31.7,07.9,0000.0,0020.65,0006.53,0004.13
2022-06-13 11:17:00,,0815.8,4.99,0.00,29.8,28.9,00.0,38.6,31.7,08.0,0000.0,0020.72,0006.53,0004.15
2022-06-13 11:18:00,,0815.8,5.00,0.00,29.8,28.9,00.0,38.6,31.7,07.4,0000.0,0020.62,0006.52,0004.16
2022-06-13 11:19:00,,0815.8,5.01,0.00,29.8,28.9,00.0,38.6,31.7,07.2,0000.0,0019.92,0006.46,0004.16
2022-06-13 11:20:00,,0815.8,5.01,0.00,29.8,28.9,00.0,38.7,31.7,07.4,0000.0,0020.00,0006.52,0004.17
2022-06-13 11:21:00,,0815.8,4.99,0.00,29.9,28.9,00.0,38.7,31.7,08.1,0000.0,0020.75,0006.61,0004.17
2022-06-13 11:22:00,,0815.8,4.99,0.00,29.9,28.9,00.0,38.7,31.7,08.3,0000.0,0021.71,0006.59,0004.18
2022-06-13 11:23:00,,0815.9,5.00,0.00,29.9,28.9,00.0,38.7,31.7,08.2,0000.0,0021.65,0006.56,0004.19
2022-06-13 11:24:00,,0815.9,5.00,0.00,29.9,29.0,00.0,38.7,31.8,08.2,0000.0,0021.62,0006.61,0004.22
2022-06-13 11:25:00,,0815.8,5.02,0.00,29.9,29.0,00.0,38.7,31.7,08.2,0000.0,0021.34,0006.55,0004.23
2022-06-13 11:26:00,,0815.8,5.01,0.00,29.9,29.0,00.0,38.7,31.7,07.9,0000.0,0020.73,0006.60,0004.25
2022-06-13 11:27:00,,0815.8,5.00,0.00,29.9,29.0,00.0,38.7,31.8,07.9,0000.0,0021.63,0006.64,0004.28
2022-06-13 11:28:00,,0815.8,5.01,0.00,29.9,29.0,00.0,38.8,31.8,07.9,0000.0,0021.88,0006.75,0004.30
2022-06-13 11:29:00,,0815.8,5.01,0.00,29.9,29.0,00.0,38.8,31.8,07.9,0000.0,0022.57,0006.83,0004.32
2022-06-13 11:30:00,,0815.7,5.00,0.00,30.0,29.0,00.0,38.8,31.9,07.9,0000.0,0023.11,0006.96,0004.37
2022-06-13 11:31:00,,0815.7,5.00,0.00,30.0,29.0,00.0,38.8,31.9,07.8,0000.0,0023.32,0007.05,0004.41
2022-06-13 11:32:00,,0815.7,4.99,0.00,30.0,28.4,00.0,38.7,31.7,07.8,0000.0,0022.53,0007.05,0004.44
2022-06-13 11:33:00,,0815.6,5.01,0.00,29.9,27.7,00.0,38.7,31.5,07.8,0000.0,0020.74,0007.09,0004.46
2022-06-13 11:34:00,,0815.7,4.99,0.00,29.8,27.5,00.0,38.6,31.4,07.8,0000.0,0021.71,0007.30,0004.49
2022-06-13 11:35:00,,0815.8,5.00,0.00,29.7,27.5,00.0,38.6,31.3,07.8,0000.0,0023.22,0007.32,0004.51
2022-06-13 11:36:00,,0815.8,5.00,0.00,29.6,27.6,00.0,38.6,31.3,07.7,0000.8,0022.82,0007.30,0004.52
2022-06-13 11:37:00,,0815.8,5.00,0.00,29.6,27.7,00.0,38.6,31.3,07.8,0001.9,0023.67,0007.27,0004.52
2022-06-13 11:38:00,,0815.8,4.99,0.00,29.6,27.8,00.0,38.6,31.3,07.8,0001.9,0022.87,0007.18,0004.52
2022-06-13 11:39:00,,0815.8,5.01,0.00,29.6,27.9,00.0,38.6,31.3,07.7,0000.3,0024.18,0007.12,0004.51
2022-06-13 11:40:00,,0815.8,5.00,0.00,29.6,28.0,00.0,38.5,31.4,07.6,0000.0,0024.19,0007.11,0004.51
2022-06-13 11:41:00,,0815.8,5.00,0.00,29.6,28.1,00.0,38.5,31.4,07.5,0000.0,0024.02,0007.13,0004.49
2022-06-13 11:42:00,,0815.8,4.99,0.00,29.6,28.2,00.0,38.5,31.4,07.4,0000.0,0024.11,0007.19,0004.46
2022-06-13 11:43:00,,0815.8,5.00,0.00,29.6,28.3,00.0,38.5,31.4,07.4,0000.0,0024.07,0007.22,0004.45
2022-06-13 11:44:00,,0815.8,5.00,0.00,29.6,28.4,00.0,38.5,31.4,07.3,0000.0,0024.31,0007.22,0004.44
2022-06-13 11:45:00,,0815.8,5.00,0.00,29.6,28.5,00.0,38.5,31.5,07.3,0000.0,0023.58,0007.09,0004.41
2022-06-13 11:46:00,,0815.9,5.00,0.00,29.6,28.5,00.0,38.5,31.5,08.0,0000.0,0022.62,0007.07,0004.39
2022-06-13 11:47:00,,0815.8,5.01,0.00,29.6,28.6,00.0,38.5,31.5,07.6,0000.0,0023.58,0007.00,0004.37
2022-06-13 11:48:00,,0815.8,4.99,0.00,29.7,28.6,00.0,38.5,31.5,07.4,0000.0,0022.16,0006.97,0004.36
2022-06-13 11:49:00,,0815.9,5.01,0.00,29.7,28.7,00.0,38.5,31.6,07.3,0000.0,0023.66,0007.03,0004.35
2022-06-13 11:50:00,,0815.9,4.99,0.00,29.7,28.7,00.0,38.5,31.6,07.4,0000.0,0023.59,0007.11,0004.35
2022-06-13 11:51:00,,0815.9,5.01,0.00,29.7,28.7,00.0,38.6,31.6,07.5,0000.0,0023.89,0007.12,0004.35
2022-06-13 11:52:00,,0815.9,5.00,0.00,29.7,28.8,00.0,38.6,31.6,07.4,0000.0,0023.91,0007.10,0004.34
2022-06-13 11:53:00,,0815.9,5.00,0.00,29.7,28.8,00.0,38.6,31.7,07.3,0000.0,0023.68,0006.97,0004.34
2022-06-13 11:54:00,,0815.9,4.99,0.00,29.8,28.8,00.0,38.6,31.7,07.2,0000.0,0024.00,0007.02,0004.33
2022-06-13 11:55:00,,0815.9,4.99,0.00,29.8,28.9,00.0,38.6,31.7,07.2,0000.0,0024.90,0007.03,0004.32
2022-06-13 11:56:00,,0815.9,5.01,0.00,29.8,28.9,00.0,38.6,31.7,07.2,0000.0,0026.28,0007.01,0004.31
2022-06-13 11:57:00,,0815.9,5.01,0.00,29.8,28.9,00.0,38.6,31.7,07.2,0000.0,0026.81,0007.05,0004.31
2022-06-13 11:58:00,,0815.9,5.00,0.00,29.8,28.9,00.0,38.6,31.7,07.4,0000.0,0025.99,0007.14,0004.32
2022-06-13 11:59:00,,0815.9,5.00,0.00,29.8,28.9,00.0,38.7,31.8,07.4,0000.0,0026.16,0007.15,0004.31
